Tracking 19576 objects as of 16-Feb-2019
HD Live streaming from Space Station
objects crossing your sky now

COSMOS 1823 DEB

Track COSMOS 1823 DEB now!
10-day predictions


NORAD ID: 18752
Int'l Code: 1987-020AD
Perigee: 1,383.7 km
Apogee: 1,477.8 km
Inclination: 73.9 °
Period: 114.3 minutes
Semi major axis: 7801 km
RCS: 0.0632 m2 (small)
Launch date: February 20, 1987
Source: Commonwealth of Independent States (former USSR) (CIS)
Launch site: PLESETSK MISSILE AND SPACE COMPLEX (PKMTR)

Note: This is SATELLITE DEBRIS
aabbcc
Your satellite tracking list
Your tracking list is empty




NASA's NSSDC Master Catalog

Two Line Element Set (TLE):
1 18752U 87020AD  19046.85862159  .00000003  00000-0  11396-3 0  9990
2 18752  73.9193 185.4151 0060309  63.5419  92.1361 12.59844781432345
Source of the keplerian elements: AFSPC